DELTA 1 DEB

Satellite information

Favourite Embed

Satellite Type and Status

DEBRISIN ORBIT

Key statistics

Satellite DELTA 1 DEB at a glance.

Uptime

17937

Days in orbit

Revolutions

≈ 13.7

Per day

Orbit

SSO

Sun Synchronous Orbit

Inclination

102.0

Latest

Satellite identification and parameters

Extended collection of information and parameters for DELTA 1 DEB.

Object identification

Identified? True

Debris? True

Object name: DELTA 1 DEB

International designator: 1976-077CF

Object number (NORAD): 10835

Object ID (CCSDS): 10835

Country: UNITED STATES OF AMERICA (US)

Current information (Y/N): Y

RCS size: SMALL

Orbital parameters

Period: 104.784 minutes

Inclination: 101.9799 deg

SMA: 7362.475 km

Apoapsis: 1035.1 km

Periapsis: 933.579 km

RAAN: 280.7434 deg

Eccentricy: 0.00689454

Argument of periapsis: 149.7523 deg

Mean anomaly: 24.4877 deg

Mean motion: 13.7425413 rev/day

Mean motion (dot): 0.00011804 rev/day2

B* drag term: 0.012351866 1/REarth

Two-line elements (TLE)

Creation date: Sept. 6, 2025, 2:09 a.m.

Reference frame: TEME

Reference center: EARTH

Epoch: Sept. 5, 2025, 8:17 p.m. UTC

TLE line 0: 0 DELTA 1 DEB

TLE line 1: 1 10835U 76077CF 25248.84561588 .00011804 00000-0 12352-1 0 9998

TLE line 2: 2 10835 101.9799 280.7434 0068945 149.7523 24.4877 13.74254130325828

Live tracking on map

Real-time ground track for satellite DELTA 1 DEB.

In-orbit conjunctions

A list of the most updated potential collisions computed for object DELTA 1 DEB.

Target Orbit TCA Probability of collision Miss distance Type
SL-8 R/B LEO 2025-08-28 11:38:34 0.0006771044 70.0 (m) ROCKET BODY
COSMOS 2361 LEO 2025-08-22 18:33:10 0.0001650113 576.0 (m) PAYLOAD
SL-8 R/B LEO 2025-07-12 15:40:02 0.0002333223 99.0 (m) ROCKET BODY

Associated space launch

Meteorological satellite using radiometric imaging

DELTA 1 DEB was lifted into orbit during the mission ‘Delta 2310 | NOAA 5’, on board a Delta 2310 space rocket.

The launch took place on July 29, 1976, 5:07 p.m. from Space Launch Complex 2W.

For more information about the launch, click the button.

Launch to space Delta 2310 | NOAA 5
Delta 2310 | NOAA 5

Agency: N/A

Status: Launch Successful

Launch date: July 29, 1976, 5:07 p.m. UTC

Rocket: Delta 2310

Launch pad: Space Launch Complex 2W

Location: Vandenberg SFB, CA, USA

...

Latest news about this satellite

There are no fresh news available about this satellite. Check back as we update our databases every day.


Newsletter sign-up

Weekly statistics, charts and insights to help you stay on top of the space industry.